7 * 24
多渠道服务支持
STARLINK-34404是美国SpaceX公司星链(Starlink)星座的卫星,于2025年6月18日发射。星链项目旨在通过近地轨道卫星星座,为全球尤其是偏远、网络欠发达地区提供低延迟、高速宽带互联网服务。 作为星链大规模组网的一员,该卫星运行在近地轨道,依托SpaceX的部署推进,延续星链星座架构,助力全球卫星互联网覆盖能力提升,不过其部署也引发了太空环保、轨道资源等领域的相关讨论。
美国
(US)
| 数据来源 | 国际轨道数据 |
| 星历时间: | 2026-06-13T04:15:37+0800 1天前 查看轨道信息 |
| 半长轴: | 6841.065km |
| 偏心率: | 0.0001262 |
| 轨道倾角: | 53.160° |
| 近地点辐角 | 87.225° |
| 升交点赤经 | 5.709° |
| 平近点角 | 272.890° |
| 近地点: | 462.064km |
| 远地点: | 463.792km |
| 周期: | 93.852分钟 |
| 每日圈数: | 15.343245 |